Wind_Speed
51 51 51 51 51 51 51 50 50 50 49 49 50 50 51 50 48 48 47 47 47 47 49 48 48 48 47 48 49 49 48 48 48 48 48 47 47 49
51 51 51 51 51 51 51 51 50 49 48 48 48 49 49 49 48 47 47 47 47 46 47 48 47 47 46 46 47 48 48 48 47 48 48 47 48 48
51 51 52 52 51 51 51 50 49 49 48 47 48 49 49 49 48 48 48 48 47 46 47 47 46 46 45 46 47 48 48 49 49 49 49 49 49 48
52 52 52 51 51 50 50 49 49 48 48 47 47 47 48 48 48 48 48 48 48 47 47 47 47 45 45 45 46 46 47 48 49 49 49 49 49 48
51 51 51 50 49 49 49 48 48 48 48 47 47 47 47 47 47 47 47 47 47 47 47 47 47 45 45 45 45 45 46 47 47 48 48 49 48 48
50 50 50 50 49 48 47 47 47 46 47 47 46 46 46 47 47 47 47 47 47 48 48 48 47 46 44 44 44 45 45 46 45 46 47 48 48 47
49 49 49 49 49 48 47 46 46 45 45 46 46 46 46 47 47 47 48 48 48 48 47 48 48 46 45 44 44 45 45 45 45 45 45 46 46 47
48 48 48 48 49 48 48 47 46 45 44 44 44 45 45 46 47 47 48 48 48 47 47 47 47 47 46 44 44 44 45 46 45 45 44 44 45 45
47 47 47 47 48 48 48 48 47 46 45 45 45 44 45 46 47 47 47 48 47 46 45 46 45 45 45 45 44 43 43 44 44 44 43 42 42 43
47 47 47 45 46 47 47 47 47 47 46 46 46 45 45 46 46 46 46 46 45 45 45 44 44 44 44 44 44 42 42 42 41 41 42 41 40 40
46 46 46 45 45 45 46 46 46 46 46 46 46 46 46 45 45 45 44 44 43 43 43 43 42 43 42 42 43 42 42 40 39 40 40 40 39 39
45 44 44 44 44 44 45 45 44 44 45 45 45 45 44 42 42 42 41 41 40 40 41 41 40 41 40 40 40 40 40 39 39 39 39 39 39 38
43 42 42 42 42 42 43 42 42 42 42 43 43 42 41 40 40 40 39 38 38 37 37 37 37 38 38 37 37 36 36 36 36 37 37 38 38 37
41 40 40 40 40 40 40 39 39 39 40 41 41 40 39 39 38 37 37 37 36 36 35 35 35 35 35 35 35 34 34 34 34 34 34 36 36 36
38 38 38 38 38 38 37 37 38 38 38 38 38 38 38 37 36 35 35 35 35 34 33 33 32 32 32 32 32 31 31 31 32 32 32 33 33 32
35 35 35 36 36 36 36 36 36 36 37 37 37 37 36 36 34 34 33 33 32 32 31 31 30 29 30 30 30 30 30 30 30 30 31 30 29 29
33 34 34 34 35 34 34 33 33 34 34 34 34 34 33 32 31 31 30 30 29 29 29 28 27 28 29 28 29 29 29 28 28 29 28 28 27 26
32 32 32 32 32 32 32 31 31 31 31 31 30 29 29 29 29 29 29 28 27 27 27 26 26 26 27 28 28 27 26 26 26 26 26 26 25 25
29 29 29 29 28 28 29 29 29 28 28 28 27 27 27 27 27 27 27 27 26 26 26 25 24 25 25 26 26 26 25 25 24 24 24 24 24 23
28 27 26 26 26 26 26 26 26 25 25 25 25 25 25 25 25 25 25 25 25 24 23 23 23 23 23 23 23 22 22 22 22 21 22 22 22 21
25 25 25 25 25 25 25 25 24 24 24 25 24 24 24 24 24 24 24 23 23 23 22 22 22 22 22 21 20 20 20 20 20 20 20 21 21 21
23 23 23 24 24 23 23 23 23 24 24 24 23 23 23 23 22 22 22 22 22 22 22 22 22 21 21 20 19 19 18 19 20 20 19 19 20 20
21 22 22 22 22 22 22 22 22 23 23 23 23 22 22 21 21 21 20 20 21 21 21 21 21 20 19 19 18 18 18 18 18 19 18 18 18 17
Wind_Direction
272 272 272 272 272 272 272 273 272 271 270 270 269 270 269 268 269 271 272 274 274 274 274 273 272 270 272 274 273 274 274 274 274 275 276 276 278 278
273 272 272 273 273 273 273 272 273 272 271 270 269 269 268 267 269 272 271 273 274 273 273 273 272 270 273 274 274 273 273 273 273 273 275 276 278 279
272 273 272 272 273 274 274 273 273 272 272 270 269 269 267 267 269 270 271 271 272 272 273 272 270 269 272 273 274 274 272 272 273 274 276 278 279 280
271 272 273 273 273 274 275 274 273 272 272 271 270 269 268 268 269 270 271 270 270 271 273 272 270 270 272 273 273 274 274 273 273 275 277 278 278 280
272 272 273 273 273 274 274 273 272 272 271 271 270 270 268 269 269 269 270 271 270 271 272 272 272 272 272 272 273 274 275 274 275 275 275 277 279 280
272 272 273 273 273 274 273 272 271 270 270 270 270 269 268 269 269 269 270 271 270 271 273 272 272 272 273 273 273 274 275 275 275 275 276 278 279 281
271 272 272 272 273 273 272 271 270 270 270 270 270 269 268 268 270 270 270 270 269 272 273 273 272 272 272 274 274 274 274 274 274 275 278 279 279 280
271 271 271 271 271 272 272 272 270 269 269 270 270 268 267 268 270 271 272 271 271 272 274 273 272 272 271 272 274 274 274 275 275 276 279 280 279 279
270 270 270 270 270 270 270 271 270 268 269 269 269 268 268 269 270 271 273 273 273 274 274 274 272 272 271 271 273 274 275 276 275 277 279 280 280 280
269 269 269 269 269 269 268 269 269 268 268 269 270 269 269 270 271 272 273 274 274 275 275 274 273 272 271 270 271 273 274 275 275 277 280 280 280 281
268 268 268 268 268 267 267 268 267 267 267 268 269 271 271 271 272 273 274 276 276 276 275 274 273 271 271 270 271 273 274 273 275 278 279 279 279 280
268 268 268 268 268 267 268 268 267 266 266 268 269 270 272 273 274 274 275 276 276 275 274 272 271 271 271 272 273 273 273 273 276 278 278 278 277 279
267 267 268 269 268 268 268 267 267 267 266 267 268 270 271 272 273 274 274 275 275 275 274 271 270 271 272 273 273 273 275 275 277 278 278 279 279 279
266 267 268 269 269 268 268 268 267 267 267 267 267 269 269 272 272 272 272 273 273 273 273 272 270 271 274 275 275 274 275 277 278 278 279 279 279 279
267 267 268 270 269 268 267 267 265 266 266 267 267 268 269 270 271 270 271 272 272 271 271 270 270 273 276 277 275 273 274 275 277 278 279 279 278 279
268 268 269 269 268 267 266 266 265 265 266 268 268 267 266 267 268 270 270 270 271 270 268 268 270 275 278 278 275 274 274 274 276 278 279 279 278 278
268 268 269 269 267 266 264 264 265 266 266 266 266 266 265 265 267 269 269 268 271 269 266 265 269 273 276 276 276 278 277 277 278 279 278 278 278 279
270 269 269 270 268 267 266 264 265 265 264 264 266 266 266 266 267 268 268 267 267 266 264 265 268 271 274 275 276 279 279 278 277 277 276 277 278 280
270 269 269 269 268 266 264 263 262 262 263 265 265 265 264 263 265 266 266 264 263 263 263 266 269 271 272 273 274 275 276 275 276 276 276 276 277 279
269 269 269 268 266 264 262 261 261 259 260 261 263 263 262 264 265 265 263 262 260 261 263 266 270 272 272 271 272 273 273 274 276 277 277 277 277 279
269 268 267 266 264 262 261 259 258 258 259 261 263 263 263 264 262 260 260 260 259 260 262 267 270 272 272 271 272 274 275 276 279 280 281 280 280 280
269 267 266 265 262 260 260 259 259 259 259 260 261 263 262 261 259 257 257 258 258 260 263 267 269 270 272 273 275 277 278 279 281 282 281 281 281 281
270 270 270 267 263 260 260 259 258 258 259 259 260 261 259 256 255 256 258 259 260 261 263 266 268 268 272 273 275 276 276 279 281 281 279 279 282 283
Height
5652 5651 5650 5650 5649 5648 5647 5647 5646 5646 5647 5647 5646 5645 5644 5644 5644 5643 5643 5643 5642 5640 5640 5639 5638 5637 5636 5635 5634 5633 5631 5630 5630 5629 5628 5627 5626 5625
5639 5638 5637 5637 5636 5635 5634 5633 5632 5632 5633 5634 5633 5632 5631 5632 5631 5630 5630 5630 5629 5628 5627 5626 5625 5624 5623 5622 5620 5619 5618 5617 5616 5615 5614 5613 5613 5611
5626 5625 5624 5623 5622 5621 5621 5620 5620 5619 5620 5621 5620 5619 5619 5619 5619 5618 5618 5617 5616 5615 5614 5613 5612 5611 5610 5609 5608 5606 5605 5604 5603 5602 5601 5601 5600 5599
5613 5611 5611 5609 5608 5608 5607 5607 5607 5607 5607 5608 5607 5606 5606 5606 5606 5606 5605 5605 5604 5603 5601 5600 5600 5599 5598 5596 5595 5593 5592 5591 5590 5589 5589 5588 5587 5585
5598 5598 5597 5596 5595 5595 5594 5594 5594 5594 5594 5594 5594 5594 5594 5593 5593 5593 5593 5592 5591 5591 5589 5588 5587 5586 5585 5584 5583 5581 5580 5579 5578 5577 5576 5575 5573 5572
5585 5584 5583 5582 5582 5582 5581 5581 5581 5581 5581 5581 5582 5582 5582 5581 5580 5581 5580 5580 5579 5578 5577 5576 5575 5574 5573 5572 5571 5570 5568 5567 5566 5564 5563 5562 5561 5559
5571 5571 5570 5569 5569 5569 5569 5569 5569 5569 5569 5569 5570 5570 5570 5569 5569 5568 5568 5567 5567 5566 5565 5564 5563 5562 5561 5560 5559 5558 5556 5555 5553 5552 5551 5550 5548 5546
5558 5557 5557 5556 5556 5556 5556 5556 5556 5557 5557 5557 5558 5558 5558 5557 5557 5555 5555 5555 5555 5555 5552 5552 5551 5550 5549 5548 5547 5546 5544 5543 5542 5541 5539 5537 5535 5534
5544 5544 5543 5543 5543 5543 5543 5543 5544 5544 5545 5545 5545 5546 5546 5546 5545 5544 5543 5542 5542 5541 5539 5539 5538 5538 5537 5536 5535 5533 5532 5531 5530 5529 5528 5526 5523 5521
5530 5530 5530 5530 5530 5530 5530 5531 5531 5532 5532 5533 5534 5534 5534 5533 5532 5532 5531 5531 5530 5529 5527 5528 5527 5526 5525 5524 5523 5522 5521 5520 5519 5518 5516 5514 5512 5510
5517 5517 5517 5517 5517 5517 5517 5518 5518 5519 5519 5520 5521 5521 5521 5521 5520 5520 5520 5519 5518 5518 5516 5516 5516 5515 5514 5513 5512 5511 5510 5509 5508 5506 5504 5503 5501 5499
5504 5504 5504 5504 5504 5504 5504 5505 5506 5507 5507 5508 5508 5509 5509 5509 5508 5508 5508 5507 5507 5507 5506 5505 5504 5503 5503 5503 5501 5500 5499 5497 5496 5495 5493 5491 5490 5487
5491 5491 5492 5492 5492 5492 5492 5493 5493 5494 5495 5496 5496 5497 5497 5498 5498 5497 5497 5497 5496 5496 5496 5494 5494 5493 5492 5492 5491 5490 5488 5486 5485 5483 5482 5480 5479 5477
5479 5480 5480 5480 5480 5480 5480 5481 5481 5482 5483 5484 5485 5486 5486 5487 5487 5486 5486 5486 5486 5486 5485 5484 5484 5483 5483 5482 5481 5480 5478 5476 5475 5474 5472 5470 5468 5467
5467 5468 5469 5469 5469 5469 5469 5470 5470 5470 5471 5472 5473 5475 5475 5476 5475 5475 5475 5476 5475 5475 5475 5475 5474 5474 5473 5472 5472 5471 5469 5468 5466 5465 5463 5461 5459 5458
5456 5457 5457 5458 5458 5458 5458 5458 5459 5460 5461 5462 5462 5463 5464 5464 5465 5465 5466 5466 5466 5466 5466 5466 5465 5465 5465 5464 5463 5462 5461 5459 5458 5456 5454 5453 5451 5449
5446 5446 5447 5446 5446 5447 5447 5448 5449 5449 5450 5451 5451 5452 5453 5454 5455 5456 5456 5457 5457 5457 5457 5457 5457 5457 5457 5456 5455 5454 5453 5451 5449 5447 5446 5445 5444 5442
5436 5436 5437 5436 5437 5437 5437 5438 5439 5440 5441 5441 5442 5443 5444 5445 5446 5447 5447 5448 5449 5449 5449 5449 5449 5449 5449 5448 5448 5447 5445 5443 5442 5440 5439 5439 5437 5435
5427 5428 5428 5428 5428 5428 5429 5430 5431 5432 5433 5434 5434 5435 5436 5437 5438 5438 5439 5440 5441 5442 5442 5442 5442 5442 5442 5442 5440 5439 5438 5436 5435 5434 5433 5432 5431 5430
5419 5419 5419 5420 5420 5421 5421 5422 5423 5424 5425 5426 5427 5428 5429 5429 5430 5431 5432 5433 5434 5435 5435 5435 5435 5435 5435 5435 5434 5432 5431 5430 5429 5428 5427 5426 5425 5424
5412 5412 5412 5412 5413 5413 5414 5415 5416 5417 5418 5419 5420 5420 5421 5422 5423 5424 5425 5426 5427 5428 5429 5429 5429 5428 5428 5427 5427 5427 5425 5424 5423 5422 5421 5420 5419 5418
5405 5405 5405 5405 5406 5406 5407 5408 5409 5410 5411 5412 5413 5414 5414 5415 5416 5417 5418 5419 5420 5421 5422 5422 5422 5422 5422 5422 5421 5420 5419 5418 5417 5416 5415 5415 5413 5412
5398 5398 5398 5399 5399 5400 5400 5401 5402 5403 5404 5405 5406 5407 5408 5409 5410 5411 5412 5413 5414 5415 5415 5416 5416 5416 5416 5415 5415 5414 5413 5412 5411 5410 5410 5409 5408 5407